Weather observations for the past three days for
Albuquerque, Albuquerque International Airport
Imperial (Metric)
Date Time (mdt) Wind (mph) Vis. (mi.) Weather Sky Cond. Temperature (ºF) Relative Humidity Wind Chill (°F) Heat Index (°F) Pressure Precipitation (in)
Air Dwpt 6 hour altimeter (in) sea level (mb) 1 hr 3 hr 6 hr
Max. Min.
18 15:52 Vrbl 5 10.00 Partly Cloudy FEW130 SCT200 SCT250 90 26.1 10% 86 29.88 1001.7
18 14:52 Vrbl 6 G 18 10.00 Partly Cloudy FEW130 FEW200 SCT250 88 26.1 10% 84 29.9 1002.1
18 13:52 W 14 10.00 Mostly Cloudy FEW200 BKN250 89.1 27 11% 85 29.9 1002.2
18 12:52 W 16 G 24 10.00 Mostly Cloudy FEW200 BKN250 87.1 28 12% 83 29.91 1002.5
18 11:52 SW 7 G 24 10.00 Partly Cloudy SCT200 84 30.9 84.9 64 15% 81 29.92 1002.7
18 10:52 W 13 G 20 10.00 A Few Clouds FEW120 FEW200 82 32 16% 80 29.92 1003.0
18 09:52 W 8 G 18 10.00 Partly Cloudy FEW120 SCT200 80.1 32 17% 78 29.92 1003.1
18 08:52 S 5 10.00 Partly Cloudy SCT200 75.9 28 17% 76 29.91 1002.7
18 07:52 SE 8 10.00 A Few Clouds FEW200 72 26.1 18% 29.9 1002.2
18 06:52 E 3 10.00 Fair CLR 69.1 25 19% 29.89 1001.9
18 05:52 S 5 10.00 Fair CLR 64.9 23 82.9 64 20% 29.87 1001.6
18 04:52 SE 8 10.00 Fair CLR 66.9 24.1 20% 29.85 1000.8
18 03:52 W 7 10.00 Fair CLR 75.9 25 15% 76 29.84 999.7
18 02:52 W 9 10.00 Fair CLR 77 25 14% 76 29.81 999.0
18 01:52 W 12 G 30 10.00 Fair CLR 79 24.1 13% 78 29.81 998.9
18 00:52 W 18 G 25 10.00 Fair CLR 81 24.1 12% 79 29.8 998.6
17 23:52 W 8 G 18 10.00 Fair CLR 82.9 23 96.1 82 11% 80 29.79 998.3
17 22:52 W 9 10.00 A Few Clouds FEW040 84 23 10% 81 29.77 997.6
17 21:52 W 13 10.00 A Few Clouds FEW040 86 23 10% 83 29.74 996.4
17 20:52 S 10 10.00 A Few Clouds FEW040 89.1 24.1 9% 85 29.7 995.1
17 19:52 SW 14 10.00 A Few Clouds FEW130 93 19.9 7% 88 29.68 994.7
17 18:52 S 16 G 25 10.00 A Few Clouds FEW120 95 16 5% 90 29.68 994.7
17 17:52 S 16 G 28 10.00 A Few Clouds FEW120 96.1 21.9 97 87.1 7% 91 29.68 994.7
17 16:52 S 16 G 28 10.00 A Few Clouds FEW150 96.1 23 7% 91 29.71 995.5
17 15:52 S 12 G 26 10.00 Fair CLR 93.9 25 8% 89 29.74 996.8
17 14:52 S 16 G 25 10.00 A Few Clouds FEW140 93 24.1 8% 88 29.77 997.4
17 13:52 S 8 G 29 10.00 Fair CLR 90 25 9% 86 29.81 999.2
17 12:52 S 12 G 22 10.00 Fair CLR 89.1 26.1 10% 85 29.85 999.9
17 11:52 Vrbl 7 G 21 10.00 Fair CLR 87.1 28 88 64.9 12% 83 29.87 1001.1
17 10:52 SE 3 10.00 Fair CLR 84 26.1 12% 81 29.89 1001.6
17 09:52 Calm 10.00 Fair CLR 82 24.1 12% 80 29.9 1002.1
17 08:52 Calm 10.00 Fair CLR 78.1 25 14% 77 29.91 1002.4
17 07:52 S 3 10.00 Fair CLR 73 24.1 16% 29.9 1002.5
17 06:52 SE 8 10.00 Fair CLR 68 26.1 21% 29.89 1002.3
17 05:52 Calm 8.00 Fair CLR 70 21 84 68 16% 29.88 1001.6
17 04:52 Calm 8.00 Fair CLR 72 19.9 14% 29.87 1001.1
17 03:52 S 6 7.00 Fair CLR 69.1 19 15% 29.86 1000.8
17 02:52 S 7 8.00 Fair CLR 75.9 19 12% 75 29.86 1000.7
17 01:52 E 5 10.00 A Few Clouds FEW150 75 21 13% 75 29.86 1000.9
17 00:52 W 7 10.00 Partly Cloudy SCT150 82 21 10% 80 29.86 1000.4
16 23:52 NW 12 10.00 A Few Clouds FEW160 82 30 96.1 82 15% 80 29.83 999.4
16 22:52 E 9 10.00 Partly Cloudy SCT160 86 27 12% 83 29.8 998.5
16 21:52 SE 5 10.00 Mostly Cloudy BKN160 87.1 27 11% 84 29.81 999.1
16 20:52 S 6 10.00 Partly Cloudy SCT170 91 25 9% 87 29.8 998.5
16 19:52 S 7 10.00 Partly Cloudy SCT170 93 27 9% 88 29.79 998.5
16 18:52 SW 8 10.00 A Few Clouds FEW150 95 26.1 8% 90 29.79 998.7
16 17:52 S 6 10.00 A Few Clouds FEW150 95 26.1 97 88 8% 90 29.8 999.0
16 16:52 Calm 10.00 A Few Clouds FEW150 95 26.1 8% 90 29.83 1000.1
16 15:52 Calm 10.00 A Few Clouds FEW140 97 24.1 7% 92 29.86 1000.7
16 14:52 SW 6 10.00 A Few Clouds FEW140 93.9 28.9 10% 89 29.89 1001.7
16 13:52 NE 6 10.00 A Few Clouds FEW120 93 26.1 9% 88 29.92 1002.6
16 12:52 W 5 10.00 A Few Clouds FEW120 89.1 28.9 11% 85 29.94 1003.8
16 11:52 NW 7 10.00 Fair CLR 87.1 33.1 88 66.9 14% 84 29.97 1004.8
16 10:52 Calm 10.00 Fair CLR 86 34 15% 83 29.99 1005.5
16 09:52 Vrbl 3 10.00 Fair CLR 81 41 24% 79 29.99 1006.0
16 08:52 NW 5 10.00 Fair CLR 75.9 44.1 32% 77 30 1006.3
16 07:52 W 5 10.00 A Few Clouds FEW150 71.1 45 39% 30 1006.3
16 06:52 Calm 10.00 A Few Clouds FEW150 66.9 42.1 41% 29.99 1006.0
16 05:52 NE 3 10.00 A Few Clouds FEW150 68 42.1 78.1 66 39% 29.97 1005.1
16 03:52 NE 10 10.00 Partly Cloudy SCT150 71.1 41 34% 29.94 1004.1
16 02:52 N 5 10.00 A Few Clouds FEW140 73 39.9 30% 29.94 1004.0
16 01:52 NW 3 10.00 A Few Clouds FEW120 FEW150 75.9 37.9 25% 77 29.94 1003.9
16 00:52 E 5 10.00 A Few Clouds FEW120 FEW150 77 39 26% 77 29.94 1004.3
15 23:52 E 8 10.00 A Few Clouds FEW120 78.1 39 93 75.9 25% 78 29.95 1004.8
15 22:52 SE 6 10.00 A Few Clouds FEW130 77 37.9 24% 77 29.97 1005.9
15 21:52 SE 6 10.00 A Few Clouds FEW130 79 37.9 23% 78 29.95 1005.6
15 20:52 SE 7 10.00 A Few Clouds FEW130 82.9 36 19% 80 29.94 1005.0
15 19:52 S 8 10.00 A Few Clouds FEW130 89.1 36 15% 85 29.93 1004.5
15 18:52 Vrbl 3 10.00 A Few Clouds FEW130 91 37 15% 87 29.93 1004.8
15 17:52 Vrbl 7 10.00 A Few Clouds FEW130 93 37 93 79 14% 89 29.94 1004.9
15 16:52 Vrbl 5 G 18 10.00 A Few Clouds FEW140 91.9 37 14% 88 29.96 1005.8
Date Time (mdt) Wind (mph) Vis. (mi.) Weather Sky Cond. Air Dwpt Max. Min. Relative Humidity Wind Chill (°F) Heat Index (°F) altimeter (in) sea level (mb) 1 hr 3 hr 6 hr
6 hour
Temperature (ºF) Pressure Precipitation (in)